Location: Bauen
(46.9356°N, 8.5784°E)
Time: 08:55:44
(UTC+00:00)

STARLINK-1115 - Pass Details

Date: 18 February 2020
Orbit: 374 x 385 km, 53.0° (Epoch: 01 April)

Event Time Altitude Azimuth Distance (km) Brightness Sun altitude
Exits shadow 04:16:05 21° 145° (SE) 923 5.0 -22.8°
Drops below altitude 10° 04:18:53 10° 84° (E) 1,416 6.9 -22.4°
Enters shadow 05:14:18 -70° 241° (WSW) 12,396 10.4 -12.9°
Maximum altitude 05:52:03 61° 335° (NNW) 442 3.0 -6.5°
